Weather History for KAEG - March, 2014

Change the Weather History Date:

Wednesday, March 5, 2014

  Actual Average Record
Temperature  
Mean Temperature 46 °F -  
Max Temperature 59 °F - - ()
Min Temperature 34 °F - - ()
Degree Days  
Heating Degree Days 18    
Moisture  
Dew Point 25 °F    
Average Humidity 58    
Maximum Humidity 93    
Minimum Humidity 21    
Precipitation  
Precipitation 0.00 in - - ()
Sea Level Pressure  
Sea Level Pressure 30.12 in    
Wind  
Wind Speed 10 mph (NW)    
Max Wind Speed 17 mph    
Max Gust Speed 21 mph    
Visibility 10 miles    
Events      
T = Trace of Precipitation, MM = Missing Value Source: NWS Daily Summary

Daily Weather History Graph

Daily Weather History Graph

Search for Another Location

Airport or City:

Trip Planner

Search our weather history database for the weather conditions in past years. The results will help you decide how hot, cold, wet, or windy it might be!

Date:

Astronomy

Mar. 05, 2014 Rise Set
Actual Time 6:31 AM MST 6:06 PM MST
Civil Twilight 6:06 AM MST 6:31 PM MST
Nautical Twilight 5:36 AM MST 7:01 PM MST
Astronomical Twilight 5:07 AM MST 7:30 PM MST
Moon 9:10 AM MST (3/5) 11:05 PM MST (3/5)
Length of Visible Light 12h 25m
Length of Day
11h 34m
Waxing Crescent, 24% of the Moon is Illuminated
Mar 5
Waxing Crescent
Mar 8
First Quarter
Mar 16
Full
Mar 23
Last Quarter
Mar 30
New

Hourly Weather History & Observations

Time (MST) Temp. Windchill Dew Point Humidity Pressure Visibility Wind Dir Wind Speed Gust Speed Precip Events Conditions
12:15 AM 38.1 °F 31.7 °F 34.2 °F 86% 30.00 in 10.0 mi NW 9.2 mph - N/A   Clear
12:35 AM 34.7 °F 26.9 °F 32.5 °F 92% 30.00 in 10.0 mi WNW 10.4 mph - N/A   Clear
12:55 AM 35.8 °F 26.9 °F 32.9 °F 89% 29.99 in 10.0 mi West 13.8 mph - N/A   Clear
1:15 AM 38.7 °F 31.8 °F 33.1 °F 80% 29.99 in 10.0 mi WNW 10.4 mph - N/A   Clear
1:35 AM 35.1 °F 28.6 °F 32.2 °F 89% 30.00 in 10.0 mi North 8.1 mph - N/A   Clear
1:55 AM 36.1 °F 29.3 °F 32.4 °F 86% 30.02 in 10.0 mi NNW 9.2 mph - N/A   Clear
2:15 AM 36.3 °F 30.8 °F 32.2 °F 85% 30.02 in 10.0 mi North 6.9 mph - N/A   Clear
2:35 AM 35.8 °F 27.8 °F 32.0 °F 86% 30.02 in 10.0 mi NW 11.5 mph - N/A   Clear
2:55 AM 37.2 °F 28.3 °F 32.5 °F 83% 30.02 in 10.0 mi NW 15.0 mph - N/A   Clear
3:15 AM 36.1 °F 26.9 °F 32.4 °F 86% 30.03 in 10.0 mi NW 15.0 mph - N/A   Clear
3:35 AM 36.0 °F 28.0 °F 32.2 °F 86% 30.04 in 10.0 mi NW 11.5 mph - N/A   Clear
3:55 AM 35.8 °F 27.3 °F 32.4 °F 87% 30.04 in 10.0 mi NW 12.7 mph - N/A   Clear
4:15 AM 36.0 °F 26.7 °F 32.5 °F 87% 30.04 in 10.0 mi NNW 15.0 mph - N/A   Clear
4:35 AM 35.8 °F 26.9 °F 32.4 °F 87% 30.05 in 10.0 mi NNW 13.8 mph - N/A   Clear
5:48 AM 37.4 °F 28.2 °F 33.8 °F 87% 30.08 in 10.0 mi NNW 16.1 mph 20.7 mph N/A   Clear
6:48 AM 35.6 °F 25.5 °F 33.8 °F 93% 30.08 in 10.0 mi NW 17.3 mph - N/A   Clear
7:49 AM 37.4 °F 28.2 °F 32.0 °F 81% 30.11 in 10.0 mi NW 16.1 mph 20.7 mph N/A   Clear
8:49 AM 44.6 °F 38.8 °F 33.8 °F 66% 30.15 in 10.0 mi NW 11.5 mph - N/A   Clear
9:49 AM 46.4 °F - 30.2 °F 53% 30.16 in 10.0 mi Calm Calm - N/A   Clear
10:49 AM 48.2 °F - 28.4 °F 46% 30.17 in 10.0 mi NNE 10.4 mph - N/A   Partly Cloudy
11:49 AM 50.0 °F - 28.4 °F 43% 30.17 in 10.0 mi SSW 3.5 mph - N/A   Partly Cloudy
12:49 PM 53.6 °F - 28.4 °F 38% 30.16 in 10.0 mi Variable 5.8 mph - N/A   Partly Cloudy
1:49 PM 57.2 °F - 24.8 °F 29% 30.14 in 10.0 mi NW 11.5 mph 18.4 mph N/A   Partly Cloudy
2:49 PM 57.2 °F - 19.4 °F 23% 30.13 in 10.0 mi NW 11.5 mph 18.4 mph N/A   Partly Cloudy
3:49 PM 59.0 °F - 21.2 °F 23% 30.13 in 10.0 mi NW 172.6 mph 18.4 mph N/A   Partly Cloudy
4:49 PM 57.2 °F - 17.6 °F 21% 30.14 in 10.0 mi WNW 13.8 mph - N/A   Scattered Clouds
5:49 PM 53.6 °F - 15.8 °F 22% 30.15 in 10.0 mi WNW 9.2 mph - N/A   Scattered Clouds
6:49 PM 48.2 °F - 15.8 °F 27% 30.18 in 10.0 mi Calm Calm - N/A   Scattered Clouds
7:49 PM 39.2 °F 33.0 °F 15.8 °F 39% 30.19 in 10.0 mi WNW 9.2 mph - N/A   Scattered Clouds
8:49 PM 46.4 °F 39.5 °F 15.8 °F 29% 30.19 in 10.0 mi WNW 17.3 mph - N/A   Scattered Clouds
9:15 PM 43.3 °F 36.8 °F 15.6 °F 33% 30.20 in 10.0 mi NNW 12.7 mph - N/A   Clear
9:35 PM 40.8 °F 36.2 °F 15.6 °F 36% 30.21 in 10.0 mi NNW 6.9 mph - N/A   Clear
9:48 PM 39.2 °F 34.2 °F 15.8 °F 39% 30.22 in 10.0 mi NW 6.9 mph - N/A   Scattered Clouds
9:55 PM 36.5 °F 29.7 °F 15.6 °F 43% 30.22 in 10.0 mi West 9.2 mph - N/A   Clear
10:15 PM 39.2 °F 32.0 °F 16.3 °F 40% 30.23 in 10.0 mi West 11.5 mph - N/A   Clear
10:35 PM 38.7 °F 30.5 °F 14.9 °F 38% 30.22 in 10.0 mi West 13.8 mph - N/A   Clear
10:55 PM 36.9 °F 33.1 °F 15.8 °F 42% 30.23 in 10.0 mi North 4.6 mph - N/A   Clear
11:15 PM 42.3 °F - 15.4 °F 34% 30.24 in 10.0 mi Calm Calm - N/A   Clear
11:35 PM 40.6 °F - 16.5 °F 38% 30.24 in 10.0 mi Calm Calm - N/A   Clear
11:55 PM 41.2 °F 39.2 °F 17.1 °F 38% 30.23 in 10.0 mi North 3.5 mph - N/A   Clear